Location: Casteau
(50.5142°N, 4.0161°E)
Time: 01:35:44
(UTC+00:00)

Cosmos 1125 Rocket - Pass Details

Date: 18 September 2020
Orbit: 758 x 780 km, 74.0° (Epoch: 24 October)

Event Time Altitude Azimuth Distance (km) Brightness Sun altitude
Rises 20:38:55 0° 212° (SSW) 3,248 6.7 -25.6°
Reaches altitude 10° 20:41:19 10° 215° (SW) 2,326 5.9 -25.9°
Maximum altitude 20:46:34 64° 297° (WNW) 863 3.9 -26.6°
Drops below altitude 10° 20:51:53 10° 20° (NNE) 2,345 6.2 -27.2°
Sets 20:54:18 0° 23° (NNE) 3,276 7.0 -27.5°
